sat.trackr.live / text

‹ back to catalog

2025-155K

NORAD 64885 · 2025-155K

PAYLOAD ACTIVE UNKNOWN

§ Identity

Operator
Country
TBD
Launch date
2025-07-25
Launch site
VOSTO
Launch vehicle
Mass (kg)
RCS (m²)

External: N2YO · Heavens-Above · Gunter

§ Orbital elements

Epoch: 2026-09-21T22:06:27.907776Z

Period
93.17 min
Inclination
97.4605°
Eccentricity
0.0007548
Mean motion
15.45593490 rev/d
Perigee alt
424.5 km
Apogee alt
434.8 km
Semi-major
6,807.8 km
B*
6.3636e-4
RAAN
237.7486°
Arg perigee
138.9643°
Mean anomaly
221.2175°
Rev number
9,582

§ Raw data

2025-155K1 64885U 25155K   26264.92115634  .00030632  00000+0  63636-3 0  99902 64885  97.4605 237.7486 0007548 138.9643 221.2175 15.45593490 95828

JSON: /api/v1/satellites/64885 · /tle

For live sub-satellite position, see the globe view (requires WebGL).

§ Visibility from observer

Set your observer location to see the next 7 days of passes ≥ 10°. The values pass through the URL so the page stays shareable.

No JS? Fill the form by hand. The geolocation button needs JavaScript.